Vertical_Velocity
-0 -1 -1 0 0 -1 -1 -2 -2 -0 -1 -1 -1 -3 -1 -2 -0 -1 -1 -1 -2 -0 -0 -1 2 1 2 2 2 -1 -2 2 2 3 4 1 -0 -0 1 2 1 0 -1 2 1
-2 -3 -3 -2 -1 -1 -1 -0 0 -0 -1 -1 -0 -2 -1 -1 -0 -2 -2 -1 -0 -1 -1 -2 2 2 4 3 4 2 -1 0 -0 1 3 2 2 4 0 0 -1 1 1 -1 -2
-2 -3 -3 -3 -2 -1 -2 -1 -1 -1 -1 -1 -2 -2 -1 -1 -1 -2 0 -1 2 0 0 -0 -2 -3 2 2 1 5 2 4 2 -1 1 4 3 2 1 1 0 1 -2 -5 -6
-2 -4 -3 -2 -1 -2 -2 -3 -1 -2 -3 -1 -2 -3 -3 -2 -7 -3 -2 1 -2 -0 -1 1 2 -0 2 0 2 -1 -1 0 2 0 -1 -1 -2 4 2 3 -1 -1 -1 -1 -1
-1 -2 -1 -1 -1 -1 -1 -1 -1 -2 -2 -1 -2 -3 -2 -2 -3 -3 -0 -1 -0 1 0 0 1 1 3 2 4 0 0 2 -1 -3 -1 0 -1 0 6 -5 -1 -1 -3 -2 -0
-3 -3 -1 -0 -0 -2 -2 -2 -2 -2 -1 -1 -3 -2 -4 -4 -2 -3 -1 -1 -0 -1 -0 0 0 -0 2 -2 -2 -1 4 1 4 0 -2 -4 2 2 -6 2 1 1 -2 -1 -2
-3 1 -1 -1 -2 -3 -2 -2 -3 -2 -2 -2 -0 -4 -2 -5 -2 -2 -1 -1 0 -1 -1 -2 0 2 6 3 4 -1 1 2 4 3 -3 5 3 -3 1 1 1 -3 -2 0 -5
-0 -2 -2 -0 -1 -2 -2 -1 -1 -2 -1 -2 -1 -4 -2 2 -3 -2 -1 -0 -1 1 -3 -2 1 0 1 2 -4 4 -2 1 3 1 5 -1 -1 -5 1 -1 0 -1 -1 -2 -1
-3 -4 -2 1 1 -0 -2 1 -1 -2 -2 -1 -1 -1 -4 -0 -2 -1 0 2 -1 -2 0 -1 1 1 1 -3 1 -1 -2 3 -1 1 -0 -2 -2 -3 3 3 -3 1 -1 -1 -1
-1 -4 -5 -4 -2 -1 -5 -0 -3 -1 -3 -4 2 -4 5 -2 0 -2 -1 -4 -4 -2 2 -1 -1 -1 3 -3 4 -2 -0 3 -1 5 0 2 -2 -3 6 1 0 1 -2 -2 -4
-1 -1 -2 -4 -2 0 -0 -4 -3 -5 2 -1 -5 -3 -4 -3 1 -2 -1 -3 -2 -0 -0 1 -2 2 -3 -0 1 3 2 1 2 3 0 -3 -2 3 2 -1 -2 -3 -3 1 -4
-0 -0 -1 -3 -2 1 -1 -1 -2 -8 6 -3 -2 -2 -1 1 -1 -0 -1 -1 -3 -1 -0 -1 1 -1 -1 -0 1 -1 2 3 -1 0 -1 -3 1 2 1 -1 -3 -1 1 -4 4
-2 -1 -0 -6 -8 0 -1 -1 -1 -1 -6 11 2 -1 -1 1 -0 -0 -0 -3 1 -3 1 -1 -2 1 0 -1 0 1 1 3 0 -2 -2 4 4 1 3 -1 -2 -9 -15 -18 -9
1 2 4 -1 -1 -0 0 -2 1 0 -7 4 -1 -1 -2 -2 0 -2 -2 1 -2 -3 -0 -3 -1 0 -2 1 3 5 1 -1 -1 -3 -0 4 -1 2 2 -3 -8 -13 -9 -3 -6
1 -1 2 -1 -1 -2 -3 2 -0 6 -3 7 2 -1 2 -1 -3 -4 -1 -1 2 -2 -1 -4 -1 -1 -1 4 7 3 -0 1 -0 -2 4 2 -0 1 0 2 1 1 1 -3 0
2 -4 0 3 -2 -2 -3 0 1 5 3 -0 1 1 4 2 1 -0 2 -1 3 -3 -1 -1 1 1 -1 2 1 0 4 0 -3 4 3 3 -1 0 -2 -2 6 -10 -12 3 -3
1 0 3 -3 -0 1 1 2 4 17 16 11 -2 -3 3 -1 -1 -3 1 -2 1 -5 -3 -1 -0 1 -2 -1 1 8 -1 -2 1 3 0 0 -1 -2 -3 -2 -6 -1 -3 -0 -2
0 -2 0 -3 1 4 9 2 4 3 3 2 -2 -4 -2 -1 -1 -2 2 -0 -2 -2 -1 -1 3 1 0 -1 1 0 0 -1 1 0 0 1 -1 -0 -5 -3 -3 -5 -2 -3 -6
1 -0 2 -2 -1 1 4 -2 7 -1 11 4 -0 -3 2 -3 -4 -1 1 -1 0 -1 -1 -3 0 1 -0 -1 2 -1 -1 -1 2 0 -0 1 -1 1 -4 -3 -4 -6 -2 -6 -3
-0 -1 -1 4 -7 6 3 2 -0 3 -2 -2 1 -7 -8 0 -1 -3 -1 1 0 -0 1 1 -0 -1 0 2 1 3 -1 2 1 -0 -1 0 -1 -1 1 1 -1 -6 -5 -4 -1
-2 -1 1 1 -3 0 5 1 -1 2 2 2 3 -6 -3 -0 -4 1 -1 2 -1 -1 1 1 2 2 -2 1 2 0 -2 -1 2 0 1 0 -0 -1 -3 -0 0 -3 1 -0 -2
-1 -4 -1 1 -1 -3 -3 -1 2 1 2 -1 -0 -2 1 -2 3 -2 2 -0 -1 -1 -0 0 1 0 1 -0 4 2 -1 -0 1 1 -1 -1 0 -0 -2 -2 -1 -1 -3 -2 -0
-2 -2 1 -1 -2 -3 1 1 3 1 -1 1 -1 1 1 2 -1 3 1 0 -2 1 -0 2 2 -1 -0 1 -0 0 -1 1 -0 -1 -1 -0 -0 -2 1 -2 -0 -0 -3 -2 -3
-5 -5 3 1 -3 1 0 3 1 -0 2 -3 4 1 0 2 1 1 2 2 -1 0 0 0 -0 0 -1 2 1 1 -2 -0 0 0 0 -2 -2 0 -2 -1 -0 -1 -1 -3 -0
4 -2 1 -1 -0 3 -1 4 1 -0 1 1 3 -0 1 1 -0 5 2 1 0 -1 0 0 0 0 -0 0 0 3 -2 -2 0 0 -1 -0 -2 -2 -4 0 -1 -3 -2 0 0
-6 -5 -0 4 4 4 -1 -2 1 -0 -3 1 3 2 1 -1 -3 3 1 1 1 1 0 1 -1 -1 0 1 2 3 -3 -2 0 0 -0 -0 -1 -1 -2 1 -1 -1 -2 0 1
-0 -1 -2 12 4 2 -1 0 2 -2 2 2 3 1 2 -2 -0 2 0 1 2 -0 1 1 1 0 -1 1 2 1 -3 -1 1 1 1 -1 -1 -1 -1 -0 1 -1 -2 1 -0
Height
5818 5816 5813 5810 5807 5805 5802 5799 5796 5792 5789 5786 5783 5780 5776 5773 5771 5768 5765 5762 5757 5755 5752 5750 5751 5750 5749 5748 5747 5746 5745 5743 5741 5740 5740 5740 5739 5738 5737 5735 5734 5733 5731 5730 5729
5813 5810 5808 5805 5802 5800 5796 5792 5789 5786 5783 5779 5775 5772 5770 5766 5763 5760 5758 5755 5752 5748 5745 5741 5740 5740 5740 5739 5738 5737 5737 5736 5733 5731 5731 5730 5729 5728 5728 5726 5725 5723 5720 5718 5716
5808 5805 5801 5798 5795 5792 5789 5786 5783 5780 5776 5773 5770 5765 5761 5758 5755 5753 5750 5747 5744 5741 5738 5735 5733 5731 5731 5730 5729 5729 5727 5726 5725 5723 5721 5720 5719 5718 5718 5717 5715 5713 5710 5707 5703
5800 5798 5795 5791 5788 5785 5782 5778 5775 5772 5768 5766 5761 5758 5755 5750 5749 5745 5741 5739 5736 5732 5729 5726 5724 5723 5722 5722 5720 5719 5718 5716 5716 5714 5710 5709 5709 5710 5709 5707 5705 5704 5700 5697 5694
5792 5789 5785 5782 5779 5776 5774 5770 5767 5764 5761 5758 5754 5750 5746 5743 5741 5736 5732 5729 5726 5722 5719 5716 5715 5714 5713 5712 5711 5708 5707 5707 5706 5703 5700 5701 5701 5700 5699 5697 5696 5693 5689 5684 5680
5783 5781 5778 5775 5771 5768 5765 5762 5759 5756 5753 5750 5746 5743 5740 5736 5732 5728 5723 5720 5716 5712 5709 5706 5704 5703 5703 5702 5701 5700 5699 5697 5696 5693 5691 5692 5694 5691 5690 5689 5686 5682 5678 5672 5666
5774 5771 5769 5766 5763 5760 5756 5753 5750 5747 5744 5741 5738 5735 5731 5729 5725 5721 5716 5711 5707 5702 5699 5695 5694 5695 5694 5693 5693 5691 5689 5687 5687 5684 5683 5685 5685 5683 5682 5679 5675 5671 5666 5660 5652
5767 5762 5761 5758 5755 5750 5746 5742 5740 5737 5734 5731 5730 5727 5723 5720 5716 5712 5707 5702 5698 5695 5690 5687 5685 5685 5685 5685 5684 5682 5681 5677 5675 5675 5678 5677 5677 5674 5673 5669 5666 5661 5655 5648 5640
5759 5754 5751 5750 5746 5742 5738 5734 5733 5729 5726 5723 5721 5718 5715 5712 5708 5703 5699 5695 5691 5686 5681 5679 5677 5676 5676 5676 5675 5674 5672 5669 5667 5668 5668 5668 5669 5667 5664 5661 5656 5650 5644 5636 5627
5748 5744 5741 5738 5736 5733 5729 5726 5723 5722 5719 5715 5713 5710 5707 5703 5699 5695 5691 5687 5683 5679 5675 5671 5668 5666 5666 5667 5666 5665 5663 5661 5659 5662 5661 5662 5662 5659 5657 5652 5646 5641 5634 5624 5613
5736 5733 5730 5726 5723 5721 5719 5717 5716 5714 5711 5707 5703 5701 5698 5695 5692 5688 5684 5681 5676 5672 5667 5664 5660 5659 5659 5658 5657 5656 5655 5653 5652 5654 5655 5654 5655 5652 5648 5644 5638 5632 5622 5612 5596
5723 5720 5717 5714 5711 5709 5707 5705 5703 5703 5702 5698 5694 5694 5692 5689 5686 5683 5679 5675 5670 5666 5661 5658 5653 5652 5651 5650 5649 5647 5647 5646 5646 5648 5649 5649 5648 5645 5641 5636 5630 5621 5612 5598 5582
5710 5708 5706 5702 5698 5699 5695 5694 5693 5691 5689 5690 5687 5687 5686 5683 5680 5677 5673 5670 5666 5661 5656 5653 5648 5644 5642 5641 5640 5640 5640 5642 5643 5643 5644 5645 5643 5639 5635 5627 5619 5609 5596 5582 5567
5698 5696 5694 5691 5690 5687 5685 5686 5684 5681 5680 5682 5681 5680 5678 5675 5674 5670 5667 5665 5660 5656 5651 5648 5644 5639 5636 5635 5636 5637 5637 5637 5638 5639 5641 5639 5637 5633 5627 5620 5611 5599 5586 5569 5558
5687 5685 5683 5680 5680 5678 5677 5677 5674 5674 5673 5675 5674 5674 5672 5670 5667 5665 5663 5659 5656 5651 5649 5645 5641 5637 5634 5633 5633 5634 5633 5635 5636 5636 5637 5634 5631 5627 5621 5614 5604 5592 5576 5562 5555
5677 5676 5673 5672 5670 5669 5669 5668 5666 5668 5665 5664 5666 5667 5665 5663 5661 5659 5658 5655 5653 5648 5644 5641 5639 5636 5634 5633 5632 5631 5632 5632 5632 5634 5632 5630 5627 5622 5616 5608 5598 5582 5569 5561 5552
5669 5667 5666 5665 5663 5662 5662 5660 5661 5659 5658 5658 5658 5660 5659 5658 5656 5655 5653 5651 5648 5644 5641 5638 5635 5633 5631 5630 5629 5629 5628 5628 5631 5630 5628 5626 5623 5617 5610 5601 5591 5578 5565 5558 5550
5661 5659 5657 5656 5655 5654 5653 5653 5651 5653 5651 5649 5650 5653 5654 5652 5652 5650 5648 5646 5643 5640 5637 5634 5633 5629 5627 5626 5626 5626 5626 5625 5626 5626 5625 5622 5619 5613 5605 5595 5584 5570 5561 5556 5548
5653 5651 5649 5647 5646 5645 5644 5644 5644 5644 5642 5641 5643 5645 5647 5647 5646 5644 5644 5642 5639 5635 5634 5630 5628 5625 5623 5622 5623 5622 5623 5624 5624 5624 5622 5620 5615 5609 5600 5590 5578 5566 5560 5555 5547
5645 5643 5642 5640 5638 5636 5636 5636 5634 5633 5634 5635 5637 5638 5641 5640 5641 5639 5639 5637 5634 5631 5629 5627 5624 5621 5620 5620 5619 5619 5620 5622 5621 5621 5619 5616 5611 5605 5597 5587 5574 5564 5559 5554 5550
5639 5636 5635 5632 5629 5629 5627 5626 5626 5626 5624 5627 5630 5631 5633 5633 5634 5634 5634 5632 5629 5627 5625 5622 5621 5620 5617 5617 5617 5617 5617 5619 5619 5618 5616 5613 5609 5602 5594 5583 5572 5562 5558 5555 5552
5632 5630 5628 5624 5624 5621 5619 5617 5618 5617 5617 5619 5623 5623 5624 5625 5628 5628 5628 5626 5624 5623 5621 5619 5617 5616 5615 5614 5615 5615 5615 5617 5617 5617 5614 5611 5607 5600 5592 5581 5571 5562 5560 5558 5555
5624 5623 5620 5618 5616 5614 5611 5609 5610 5610 5610 5613 5615 5616 5618 5620 5623 5623 5622 5622 5620 5619 5618 5616 5615 5613 5612 5613 5613 5613 5614 5615 5615 5615 5613 5609 5605 5598 5590 5581 5569 5562 5560 5560 5557
5616 5615 5613 5612 5610 5607 5604 5603 5603 5603 5605 5607 5609 5610 5612 5614 5616 5618 5618 5617 5616 5615 5615 5613 5611 5610 5610 5611 5611 5611 5612 5614 5614 5614 5611 5607 5603 5597 5589 5580 5568 5563 5562 5561 5560
5608 5608 5606 5605 5603 5601 5599 5597 5596 5597 5600 5601 5603 5604 5606 5609 5611 5613 5613 5613 5613 5612 5612 5611 5609 5608 5607 5608 5608 5609 5611 5612 5613 5612 5611 5607 5602 5597 5590 5579 5569 5564 5564 5563 5563
5599 5599 5599 5598 5597 5596 5593 5591 5590 5591 5594 5596 5598 5598 5601 5603 5606 5608 5609 5609 5609 5609 5609 5608 5607 5606 5605 5605 5606 5608 5610 5611 5612 5611 5609 5606 5602 5597 5589 5580 5570 5565 5565 5566 5566
5590 5590 5590 5591 5591 5590 5588 5586 5585 5585 5589 5590 5592 5593 5596 5598 5601 5604 5605 5605 5605 5606 5606 5606 5605 5604 5604 5604 5605 5608 5608 5610 5611 5610 5608 5605 5602 5597 5590 5581 5572 5566 5567 5568 5568